TimeMST,TemperatureF,Dew PointF,Humidity,Sea Level PressureIn,VisibilityMPH,Wind Direction,Wind SpeedMPH,Gust SpeedMPH,PrecipitationIn,Events,Conditions,WindDirDegrees,DateUTC
12:53 AM,8.1,3.9,83,30.30,10.0,Calm,Calm,-,N/A,,Clear,0,2013-01-23 07:53:00
1:53 AM,8.1,3.9,83,30.30,10.0,NW,3.5,-,N/A,,Clear,320,2013-01-23 08:53:00
2:53 AM,8.1,3.9,83,30.30,10.0,SSW,3.5,-,N/A,,Clear,210,2013-01-23 09:53:00
3:53 AM,5.0,1.9,87,30.31,8.0,Calm,Calm,-,N/A,,Clear,0,2013-01-23 10:53:00
4:53 AM,3.9,1.0,88,30.32,8.0,Calm,Calm,-,N/A,,Clear,0,2013-01-23 11:53:00
5:53 AM,6.1,3.0,87,30.33,9.0,Calm,Calm,-,N/A,,Clear,0,2013-01-23 12:53:00
6:53 AM,3.9,1.0,88,30.35,8.0,Calm,Calm,-,N/A,,Clear,0,2013-01-23 13:53:00
7:53 AM,3.9,1.0,88,30.36,7.0,Calm,Calm,-,N/A,,Clear,0,2013-01-23 14:53:00
8:53 AM,7.0,3.0,84,30.35,7.0,Calm,Calm,-,N/A,,Clear,0,2013-01-23 15:53:00
9:53 AM,10.0,6.1,84,30.36,10.0,Calm,Calm,-,N/A,,Clear,0,2013-01-23 16:53:00
10:53 AM,12.0,7.0,80,30.36,8.0,Calm,Calm,-,N/A,,Clear,0,2013-01-23 17:53:00
11:53 AM,19.0,10.9,71,30.32,9.0,Calm,Calm,-,N/A,,Clear,0,2013-01-23 18:53:00
12:53 PM,19.9,12.0,71,30.28,10.0,Calm,Calm,-,N/A,,Clear,0,2013-01-23 19:53:00
1:53 PM,21.0,14.0,74,30.25,10.0,NW,3.5,-,N/A,,Clear,320,2013-01-23 20:53:00
2:53 PM,21.9,15.1,75,30.25,10.0,Calm,Calm,-,N/A,,Clear,0,2013-01-23 21:53:00
3:53 PM,21.9,16.0,78,30.24,10.0,Calm,Calm,-,N/A,,Clear,0,2013-01-23 22:53:00
4:53 PM,21.9,15.1,75,30.24,10.0,Calm,Calm,-,N/A,,Clear,0,2013-01-23 23:53:00
5:53 PM,19.0,14.0,81,30.24,10.0,NNW,5.8,-,N/A,,Clear,340,2013-01-24 00:53:00
6:53 PM,19.0,14.0,81,30.24,10.0,Calm,Calm,-,N/A,,Clear,0,2013-01-24 01:53:00
7:53 PM,18.0,12.9,81,30.24,10.0,East,6.9,-,N/A,,Clear,100,2013-01-24 02:53:00
8:53 PM,18.0,12.9,81,30.21,9.0,ESE,3.5,-,N/A,,Clear,110,2013-01-24 03:53:00
9:53 PM,16.0,12.0,84,30.22,9.0,Calm,Calm,-,N/A,,Clear,0,2013-01-24 04:53:00
10:53 PM,15.1,10.9,84,30.21,10.0,Calm,Calm,-,N/A,,Clear,0,2013-01-24 05:53:00
11:53 PM,14.0,10.0,84,30.18,9.0,Calm,Calm,-,N/A,,Clear,0,2013-01-24 06:53:00